SVA1336 OEHL-OERK

Flight info

Callsign SVA1336
Flight time 0h 54m
Altitude 33000
Route HIL G662 SIVIS
Aircraft A321/M-SDE2E3FGHIRWY/L

Departure

Time 2026-04-22 22:05
Airport Hail International Airport (OEHL)

Arrival

Time 2026-04-22 23:00
Airport King Khalid International Airport (OERK)
Time Latitude Longitude Altitude Speed Heading
2026-04-22 21:55 27.43839 41.68844 3291 ft 0 kts 78°
2026-04-22 21:56 27.43840 41.68847 3291 ft 2 kts 78°
2026-04-22 21:56 27.43846 41.68854 3291 ft 0 kts 30°
2026-04-22 21:56 27.43858 41.68854 3291 ft 7 kts
2026-04-22 21:57 27.43934 41.68862 3290 ft 12 kts
2026-04-22 21:57 27.44015 41.68868 3289 ft 11 kts
2026-04-22 21:57 27.44093 41.68872 3288 ft 11 kts
2026-04-22 21:57 27.44169 41.68878 3288 ft 11 kts
2026-04-22 21:58 27.44242 41.68883 3287 ft 10 kts
2026-04-22 21:58 27.44313 41.68887 3286 ft 10 kts
2026-04-22 21:58 27.44381 41.68891 3285 ft 9 kts
2026-04-22 21:58 27.44450 41.68897 3285 ft 12 kts
2026-04-22 21:59 27.44531 41.68902 3284 ft 11 kts
2026-04-22 21:59 27.44608 41.68908 3283 ft 11 kts
2026-04-22 21:59 27.44682 41.68913 3283 ft 11 kts
2026-04-22 21:59 27.44753 41.68918 3282 ft 10 kts
2026-04-22 22:00 27.44832 41.68924 3281 ft 14 kts
2026-04-22 22:00 27.44932 41.68931 3277 ft 14 kts
2026-04-22 22:00 27.45030 41.68938 3278 ft 14 kts
2026-04-22 22:00 27.45128 41.68945 3276 ft 14 kts
2026-04-22 22:01 27.45223 41.68951 3273 ft 14 kts
2026-04-22 22:01 27.45318 41.68955 3275 ft 13 kts 354°
2026-04-22 22:01 27.45394 41.68908 3271 ft 12 kts 322°
2026-04-22 22:01 27.45439 41.68855 3278 ft 0 kts 309°
2026-04-22 22:02 27.45447 41.68838 3274 ft 0 kts 296°
2026-04-22 22:02 27.45447 41.68837 3274 ft 0 kts 296°
2026-04-22 22:02 27.45448 41.68836 3273 ft 0 kts 296°
2026-04-22 22:02 27.45450 41.68829 3273 ft 2 kts 293°
2026-04-22 22:03 27.45454 41.68816 3270 ft 2 kts 283°
2026-04-22 22:03 27.45455 41.68802 3273 ft 1 kts 268°
2026-04-22 22:03 27.45451 41.68777 3270 ft 3 kts 256°
2026-04-22 22:03 27.45432 41.68750 3273 ft 8 kts 218°
2026-04-22 22:04 27.45376 41.68734 3270 ft 0 kts 184°
2026-04-22 22:04 27.45348 41.68732 3270 ft 20 kts 184°
2026-04-22 22:05 27.44956 41.68705 3281 ft 90 kts 183°
2026-04-22 22:05 27.44134 41.68650 3287 ft 144 kts 184°
2026-04-22 22:05 27.42993 41.68577 3438 ft 173 kts 179°
2026-04-22 22:05 27.41825 41.68558 4180 ft 166 kts 179°
2026-04-22 22:06 27.40654 41.68500 4704 ft 176 kts 180°
2026-04-22 22:06 27.39359 41.68433 4993 ft 198 kts 180°
2026-04-22 22:06 27.37905 41.68348 5233 ft 219 kts 180°
2026-04-22 22:06 27.36303 41.68236 5383 ft 242 kts 180°
2026-04-22 22:07 27.34555 41.68109 5817 ft 262 kts 180°
2026-04-22 22:07 27.32643 41.67958 6042 ft 296 kts 180°
2026-04-22 22:07 27.30503 41.67777 6298 ft 314 kts 180°
2026-04-22 22:07 27.28422 41.67766 6509 ft 283 kts 167°
2026-04-22 22:08 27.26594 41.68421 6892 ft 273 kts 148°
2026-04-22 22:08 27.25077 41.69671 7663 ft 271 kts 131°
2026-04-22 22:08 27.23993 41.71392 8338 ft 271 kts 114°
2026-04-22 22:08 27.23400 41.73412 8976 ft 274 kts 105°
2026-04-22 22:09 27.22889 41.75491 9567 ft 279 kts 105°
2026-04-22 22:09 27.22363 41.77613 10122 ft 286 kts 106°
2026-04-22 22:09 27.21809 41.79845 10276 ft 307 kts 107°
2026-04-22 22:09 27.21211 41.82234 10408 ft 328 kts 107°
2026-04-22 22:10 27.20574 41.84769 10538 ft 348 kts 107°
2026-04-22 22:10 27.19897 41.87452 10760 ft 363 kts 107°
2026-04-22 22:10 27.19205 41.90202 11227 ft 369 kts 108°
2026-04-22 22:10 27.18504 41.93000 11713 ft 376 kts 108°
2026-04-22 22:11 27.17788 41.95850 12212 ft 381 kts 108°
2026-04-22 22:11 27.17063 41.98743 12695 ft 388 kts 108°
2026-04-22 22:11 27.16323 42.01685 13243 ft 393 kts 108°
2026-04-22 22:11 27.15571 42.04665 13719 ft 399 kts 109°
2026-04-22 22:12 27.14809 42.07678 14227 ft 403 kts 109°
2026-04-22 22:12 27.14038 42.10721 14724 ft 407 kts 109°
2026-04-22 22:12 27.13260 42.13793 15221 ft 411 kts 109°
2026-04-22 22:12 27.12472 42.16890 15691 ft 415 kts 109°
2026-04-22 22:13 27.11676 42.20021 16163 ft 419 kts 109°
2026-04-22 22:13 27.10873 42.23185 16630 ft 423 kts 109°
2026-04-22 22:13 27.10065 42.26376 17056 ft 427 kts 110°
2026-04-22 22:13 27.09248 42.29594 17476 ft 430 kts 110°
2026-04-22 22:14 27.08268 42.32764 17865 ft 429 kts 118°
2026-04-22 22:14 27.06865 42.35700 18237 ft 427 kts 126°
2026-04-22 22:14 27.05324 42.38562 18622 ft 430 kts 127°
2026-04-22 22:14 27.03775 42.41446 18985 ft 433 kts 126°
2026-04-22 22:15 27.02224 42.44349 19354 ft 436 kts 126°
2026-04-22 22:15 27.00664 42.47277 19733 ft 438 kts 126°
2026-04-22 22:15 26.99116 42.50177 20088 ft 440 kts 126°
2026-04-22 22:15 26.97538 42.53131 20465 ft 443 kts 127°
2026-04-22 22:16 26.95950 42.56098 20832 ft 445 kts 127°
2026-04-22 22:16 26.94353 42.59080 21202 ft 447 kts 127°
2026-04-22 22:16 26.92747 42.62081 21564 ft 450 kts 127°
2026-04-22 22:16 26.91125 42.65109 21764 ft 457 kts 127°
2026-04-22 22:17 26.89486 42.68156 22291 ft 453 kts 127°
2026-04-22 22:17 26.87900 42.71117 23460 ft 433 kts 127°
2026-04-22 22:17 26.86393 42.73940 24582 ft 412 kts 128°
2026-04-22 22:17 26.84961 42.76627 25732 ft 391 kts 128°
2026-04-22 22:18 26.83594 42.79189 26664 ft 378 kts 129°
2026-04-22 22:18 26.82237 42.81705 27117 ft 378 kts 129°
2026-04-22 22:18 26.80870 42.84221 27434 ft 380 kts 129°
2026-04-22 22:18 26.79489 42.86756 27724 ft 384 kts 129°
2026-04-22 22:19 26.78083 42.89335 27853 ft 392 kts 129°
2026-04-22 22:19 26.77134 42.91073 27938 ft 398 kts 129°
2026-04-22 22:19 26.75679 42.93748 28066 ft 406 kts 128°
2026-04-22 22:19 26.74202 42.96472 28194 ft 413 kts 128°
2026-04-22 22:20 26.72190 43.00193 28365 ft 422 kts 128°
2026-04-22 22:20 26.69640 43.04927 28576 ft 432 kts 128°
2026-04-22 22:20 26.68080 43.07820 28731 ft 437 kts 128°
2026-04-22 22:21 26.66502 43.10739 28924 ft 441 kts 128°
2026-04-22 22:21 26.63260 43.16705 28989 ft 458 kts 128°
2026-04-22 22:22 26.59885 43.22903 28977 ft 476 kts 127°
2026-04-22 22:22 26.56615 43.29510 28976 ft 501 kts 115°
2026-04-22 22:23 26.54239 43.36910 28983 ft 517 kts 114°
2026-04-22 22:23 26.51464 43.44423 28975 ft 519 kts 127°
2026-04-22 22:24 26.47320 43.50977 28975 ft 523 kts 131°
2026-04-22 22:24 26.43025 43.57600 28965 ft 529 kts 131°
2026-04-22 22:25 26.38706 43.64254 28979 ft 530 kts 131°
2026-04-22 22:25 26.34381 43.70911 28970 ft 530 kts 131°
2026-04-22 22:26 26.30091 43.77602 28961 ft 533 kts 127°
2026-04-22 22:26 26.26598 43.84953 28962 ft 538 kts 121°
2026-04-22 22:27 26.23220 43.92330 28974 ft 538 kts 121°
2026-04-22 22:27 26.19813 43.99740 28972 ft 538 kts 121°
2026-04-22 22:28 26.16396 44.07143 28961 ft 538 kts 121°
2026-04-22 22:28 26.12973 44.14553 28968 ft 532 kts 121°
2026-04-22 22:28 26.11316 44.18150 28973 ft 515 kts 122°
2026-04-22 22:29 26.09690 44.21677 28972 ft 510 kts 122°
2026-04-22 22:29 26.06456 44.28665 28963 ft 507 kts 122°
2026-04-22 22:30 26.03218 44.35627 28973 ft 506 kts 122°
2026-04-22 22:30 25.99984 44.42578 28973 ft 506 kts 122°
2026-04-22 22:31 25.96752 44.49533 28975 ft 507 kts 122°
2026-04-22 22:31 25.93494 44.56521 28971 ft 515 kts 122°
2026-04-22 22:31 25.91833 44.60071 28465 ft 519 kts 122°
2026-04-22 22:32 25.90158 44.63646 27277 ft 524 kts 122°
2026-04-22 22:32 25.88479 44.67235 26196 ft 523 kts 122°
2026-04-22 22:32 25.86809 44.70817 25115 ft 521 kts 122°
2026-04-22 22:32 25.85153 44.74365 24191 ft 514 kts 121°
2026-04-22 22:33 25.83544 44.77814 23399 ft 506 kts 121°
2026-04-22 22:33 25.81936 44.81252 22587 ft 498 kts 121°
2026-04-22 22:33 25.80345 44.84644 21765 ft 492 kts 122°
2026-04-22 22:33 25.78771 44.87993 20940 ft 487 kts 121°
2026-04-22 22:34 25.77212 44.91303 20098 ft 481 kts 121°
2026-04-22 22:34 25.75664 44.94577 19271 ft 476 kts 121°
2026-04-22 22:34 25.74129 44.97816 18441 ft 471 kts 121°
2026-04-22 22:34 25.72616 45.01017 17642 ft 466 kts 121°
2026-04-22 22:35 25.71126 45.04183 16883 ft 460 kts 121°
2026-04-22 22:35 25.69670 45.07286 16548 ft 443 kts 121°
2026-04-22 22:35 25.68286 45.10233 16432 ft 420 kts 121°
2026-04-22 22:35 25.66966 45.13015 16351 ft 401 kts 121°
2026-04-22 22:36 25.65656 45.15769 16255 ft 403 kts 121°
2026-04-22 22:36 25.64350 45.18527 16160 ft 404 kts 121°
2026-04-22 22:36 25.63045 45.21282 16071 ft 404 kts 121°
2026-04-22 22:36 25.61742 45.24038 15986 ft 403 kts 121°
2026-04-22 22:37 25.60433 45.26807 15956 ft 412 kts 121°
2026-04-22 22:37 25.59078 45.29656 15973 ft 423 kts 121°
2026-04-22 22:37 25.57702 45.32551 15972 ft 425 kts 121°
2026-04-22 22:37 25.56324 45.35452 15970 ft 426 kts 121°
2026-04-22 22:38 25.54944 45.38359 15969 ft 427 kts 121°
2026-04-22 22:38 25.53563 45.41269 15966 ft 427 kts 121°
2026-04-22 22:38 25.52184 45.44174 15973 ft 426 kts 121°
2026-04-22 22:38 25.50802 45.47083 15970 ft 426 kts 121°
2026-04-22 22:39 25.49420 45.49987 15973 ft 426 kts 121°
2026-04-22 22:39 25.48036 45.52892 15973 ft 427 kts 121°
2026-04-22 22:39 25.46652 45.55792 15971 ft 426 kts 121°
2026-04-22 22:39 25.45268 45.58690 15969 ft 426 kts 121°
2026-04-22 22:40 25.43884 45.61587 15971 ft 426 kts 121°
2026-04-22 22:40 25.42500 45.64483 15975 ft 426 kts 121°
2026-04-22 22:40 25.41145 45.67319 15963 ft 415 kts 121°
2026-04-22 22:40 25.39839 45.70065 15967 ft 393 kts 121°
2026-04-22 22:41 25.38603 45.72670 15971 ft 372 kts 121°
2026-04-22 22:41 25.37429 45.75140 15969 ft 354 kts 121°
2026-04-22 22:41 25.36302 45.77504 15969 ft 344 kts 121°
2026-04-22 22:41 25.35337 45.79919 15894 ft 345 kts 113°
2026-04-22 22:42 25.34558 45.82414 15645 ft 342 kts 112°
2026-04-22 22:42 25.33791 45.84891 15395 ft 340 kts 112°
2026-04-22 22:42 25.33027 45.87354 15134 ft 338 kts 112°
2026-04-22 22:42 25.32267 45.89795 14769 ft 334 kts 112°
2026-04-22 22:43 25.31514 45.92210 14372 ft 331 kts 114°
2026-04-22 22:43 25.30458 45.94411 13966 ft 320 kts 133°
2026-04-22 22:43 25.29014 45.96255 13550 ft 316 kts 135°
2026-04-22 22:43 25.27566 45.98059 13148 ft 312 kts 136°
2026-04-22 22:44 25.26129 45.99840 12725 ft 309 kts 136°
2026-04-22 22:44 25.24703 46.01602 12330 ft 306 kts 136°
2026-04-22 22:44 25.23290 46.03346 11951 ft 303 kts 135°
2026-04-22 22:44 25.21912 46.05053 11566 ft 300 kts 135°
2026-04-22 22:45 25.20530 46.06767 11150 ft 298 kts 135°
2026-04-22 22:45 25.19155 46.08469 10732 ft 296 kts 134°
2026-04-22 22:45 25.17792 46.10155 10302 ft 294 kts 134°
2026-04-22 22:45 25.16435 46.11835 9876 ft 292 kts 133°
2026-04-22 22:46 25.15086 46.13501 9450 ft 290 kts 133°
2026-04-22 22:46 25.13744 46.15159 9037 ft 288 kts 133°
2026-04-22 22:46 25.12416 46.16802 8602 ft 286 kts 132°
2026-04-22 22:46 25.11095 46.18435 8161 ft 284 kts 131°
2026-04-22 22:47 25.09780 46.20060 7736 ft 282 kts 131°
2026-04-22 22:47 25.08477 46.21672 7294 ft 281 kts 131°
2026-04-22 22:47 25.07181 46.23274 6857 ft 279 kts 130°
2026-04-22 22:47 25.05889 46.24868 6417 ft 278 kts 130°
2026-04-22 22:48 25.04605 46.26449 6054 ft 275 kts 130°
2026-04-22 22:48 25.03304 46.28053 6000 ft 295 kts 130°
2026-04-22 22:48 25.01867 46.29828 6009 ft 325 kts 130°
2026-04-22 22:48 25.00302 46.31762 6003 ft 348 kts 130°
2026-04-22 22:49 24.98672 46.33772 6004 ft 355 kts 130°
2026-04-22 22:49 24.96998 46.35832 6007 ft 372 kts 130°
2026-04-22 22:49 24.95236 46.38002 6005 ft 377 kts 130°
2026-04-22 22:49 24.93509 46.40123 6004 ft 375 kts 130°
2026-04-22 22:50 24.91821 46.42191 5999 ft 350 kts 130°
2026-04-22 22:50 24.90258 46.44104 6002 ft 326 kts 130°
2026-04-22 22:50 24.88790 46.45898 6002 ft 304 kts 130°
2026-04-22 22:50 24.87424 46.47568 5937 ft 285 kts 130°
2026-04-22 22:51 24.86139 46.49140 5634 ft 268 kts 130°
2026-04-22 22:51 24.84888 46.50671 5135 ft 262 kts 130°
2026-04-22 22:51 24.83696 46.52131 5000 ft 262 kts 129°
2026-04-22 22:51 24.82493 46.53609 4998 ft 248 kts 129°
2026-04-22 22:52 24.81378 46.54976 5022 ft 237 kts 129°
2026-04-22 22:52 24.80288 46.56317 5012 ft 233 kts 129°
2026-04-22 22:52 24.79225 46.57659 5003 ft 230 kts 123°
2026-04-22 22:52 24.78544 46.59211 5003 ft 223 kts 108°
2026-04-22 22:53 24.78006 46.60794 5002 ft 220 kts 108°
2026-04-22 22:53 24.77473 46.62363 5003 ft 219 kts 108°
2026-04-22 22:53 24.76941 46.63932 5005 ft 217 kts 109°
2026-04-22 22:53 24.76413 46.65487 5014 ft 217 kts 109°
2026-04-22 22:54 24.75892 46.67022 5012 ft 206 kts 109°
2026-04-22 22:54 24.75412 46.68435 4917 ft 187 kts 109°
2026-04-22 22:54 24.75007 46.69767 4462 ft 185 kts 98°
2026-04-22 22:54 24.75157 46.71140 4043 ft 180 kts 64°
2026-04-22 22:55 24.75855 46.72298 4004 ft 184 kts 55°
2026-04-22 22:55 24.76610 46.73452 4005 ft 186 kts 55°
2026-04-22 22:55 24.78126 46.75769 4007 ft 187 kts 55°
2026-04-22 22:56 24.78899 46.76891 4002 ft 188 kts 47°
2026-04-22 22:56 24.80013 46.77519 3995 ft 173 kts 17°
2026-04-22 22:56 24.81159 46.77728 3996 ft 162 kts
2026-04-22 22:56 24.82149 46.77324 3998 ft 157 kts 318°
2026-04-22 22:57 24.82887 46.76460 3986 ft 152 kts 331°
2026-04-22 22:57 24.83816 46.75911 4006 ft 153 kts 333°
2026-04-22 22:57 24.84733 46.75316 3982 ft 152 kts 334°
2026-04-22 22:57 24.85648 46.74730 3847 ft 153 kts 333°
2026-04-22 22:58 24.86569 46.74145 3680 ft 153 kts 333°
2026-04-22 22:58 24.87493 46.73560 3487 ft 153 kts 333°
2026-04-22 22:58 24.88416 46.72977 3288 ft 152 kts 333°
2026-04-22 22:58 24.89333 46.72397 3092 ft 152 kts 333°
2026-04-22 22:59 24.90247 46.71820 2887 ft 151 kts 333°
2026-04-22 22:59 24.91156 46.71244 2661 ft 151 kts 333°
2026-04-22 22:59 24.92062 46.70665 2468 ft 150 kts 332°
2026-04-22 22:59 24.92956 46.70104 2279 ft 150 kts 333°
2026-04-22 23:00 24.93853 46.69541 2077 ft 148 kts 331°
2026-04-22 23:00 24.94694 46.69007 2033 ft 117 kts 331°
2026-04-22 23:00 24.95219 46.68683 2035 ft 39 kts 331°
2026-04-22 23:00 24.95338 46.68672 2029 ft 12 kts
2026-04-22 23:01 24.95411 46.68683 2029 ft 6 kts 15°
2026-04-22 23:01 24.95445 46.68699 2029 ft 5 kts 32°
2026-04-22 23:01 24.95457 46.68708 2034 ft 0 kts 37°
2026-04-22 23:02 24.95458 46.68709 2040 ft 1 kts 37°
2026-04-22 23:02 24.95479 46.68727 2029 ft 5 kts 41°
2026-04-22 23:03 24.95510 46.68778 2036 ft 11 kts 65°
2026-04-22 23:03 24.95491 46.68844 2036 ft 9 kts 146°
2026-04-22 23:03 24.95439 46.68879 2029 ft 9 kts 148°
2026-04-22 23:03 24.95387 46.68913 2037 ft 8 kts 150°
2026-04-22 23:04 24.95337 46.68945 2030 ft 9 kts 150°
2026-04-22 23:04 24.95274 46.68985 2033 ft 14 kts 150°
2026-04-22 23:04 24.95159 46.69057 2036 ft 23 kts 150°
2026-04-22 23:04 24.95018 46.69146 2038 ft 23 kts 150°
2026-04-22 23:05 24.94928 46.69203 2034 ft 8 kts 152°
2026-04-22 23:05 24.94883 46.69231 2036 ft 7 kts 150°
2026-04-22 23:05 24.94844 46.69256 2037 ft 6 kts 150°
2026-04-22 23:05 24.94787 46.69292 2038 ft 16 kts 150°
2026-04-22 23:06 24.94697 46.69348 2036 ft 13 kts 150°
2026-04-22 23:06 24.94618 46.69398 2039 ft 13 kts 150°
2026-04-22 23:06 24.94543 46.69446 2038 ft 12 kts 143°
2026-04-22 23:06 24.94515 46.69516 2038 ft 10 kts 73°
2026-04-22 23:07 24.94555 46.69568 2037 ft 9 kts 63°
2026-04-22 23:07 24.94579 46.69643 2036 ft 16 kts 69°
2026-04-22 23:07 24.94656 46.69796 2037 ft 29 kts 57°
2026-04-22 23:07 24.94768 46.70006 2034 ft 34 kts 61°
2026-04-22 23:08 24.94886 46.70232 2037 ft 34 kts 60°
2026-04-22 23:08 24.95004 46.70457 2034 ft 34 kts 60°
2026-04-22 23:08 24.95121 46.70678 2039 ft 33 kts 59°
2026-04-22 23:08 24.95235 46.70896 2037 ft 25 kts 61°
2026-04-22 23:09 24.95315 46.71013 2036 ft 17 kts 14°
2026-04-22 23:09 24.95388 46.70994 2038 ft 15 kts 331°
2026-04-22 23:09 24.95473 46.70939 2039 ft 14 kts 338°
2026-04-22 23:09 24.95540 46.70898 2037 ft 10 kts 330°
2026-04-22 23:10 24.95549 46.70834 2039 ft 7 kts 241°
2026-04-22 23:10 24.95539 46.70804 2031 ft 6 kts 264°
2026-04-22 23:10 24.95547 46.70766 2034 ft 5 kts 292°
2026-04-22 23:10 24.95559 46.70738 2034 ft 3 kts 298°
2026-04-22 23:11 24.95568 46.70718 2037 ft 2 kts 297°
2026-04-22 23:11 24.95575 46.70705 2039 ft 1 kts 298°
2026-04-22 23:11 24.95578 46.70698 2031 ft 1 kts 299°
2026-04-22 23:11 24.95579 46.70696 2039 ft 0 kts 299°
2026-04-22 23:12 24.95580 46.70694 2037 ft 0 kts 299°
2026-04-22 23:12 24.95581 46.70693 2031 ft 0 kts 299°